Regional Weather Roundup
Issued by NWS Upton, NY

Current Version | Previous Version | Text Only | Print | Product List | Glossary On
Versions: 1 2 3 4 5 6 7 8 9 10 11 12 13 14 15 16 17 18 19 20 21 22 23 24 25 26 27 28 29 30 31 32 33 34 35 36 37 38 39 40 41 42 43 44 45 46 47 48 49 50
000 ASUS41 KOKX 020304 RWROKX REGIONAL WEATHER ROUNDUP NATIONAL WEATHER SERVICE NEW YORK NY 1100 PM EDT SAT AUG 01 2015 NOTE: "FAIR" INDICATES FEW OR NO CLOUDS BELOW 12,000 FEET WITH NO SIGNIFICANT WEATHER AND/OR OBSTRUCTIONS TO VISIBILITY. NYZ071-072-176-178-NJZ106-104-020400- NEW YORK CITY METRO AREA CITY SKY/WX TMP DP RH WIND PRES REMARKS CENTRAL PARK CLEAR 79 55 43 VRB5 29.88R LAGUARDIA APRT PTCLDY 80 57 45 NW6 29.84S KENNEDY INTL CLEAR 82 56 40 NW7 29.86R NEWARK/LIBERTY PTCLDY 78 57 48 W8 29.85S BRNX BOT. GARD N/A 79 55 44 W5 29.88R TETERBORO CLEAR 76 55 48 W6 29.84R $$ NYZ177-179-078>081-020400- LONG ISLAND NEW YORK CITY SKY/WX TMP DP RH WIND PRES REMARKS FARMINGDALE CLEAR 79 56 45 NW5 29.85R ISLIP PTCLDY 75 58 55 W6 29.83R SHIRLEY CLEAR 71 60 68 W3 29.85R WESTHAMPTON CLEAR 66 62 87 CALM 29.86R MONTAUK POINT N/A 78 64 61 SW5 29.84R $$ NYZ052-065-067-020400- HUDSON VALLEY CITY SKY/WX TMP DP RH WIND PRES REMARKS WHITE PLAINS PTCLDY 73 59 61 NW6 29.86R NEWBURGH CLEAR 70 59 68 W6 29.88R MONTGOMERY PTCLDY 72 58 61 W8 29.87R POUGHKEEPSIE CLEAR 69 58 67 CALM 29.84R ALBANY CLEAR 68 54 60 SW3 29.86R $$ NJZ001-105-106-008-010-013-015-019>022-104-020400- NEW JERSEY CITY SKY/WX TMP DP RH WIND PRES REMARKS NEWARK/LIBERTY PTCLDY 78 57 48 W8 29.85S TETERBORO CLEAR 76 55 48 W6 29.84R CALDWELL CLEAR 73 57 57 S3 29.86S MORRISTOWN CLEAR 66 59 77 CALM 29.87 SOMERVILLE CLEAR 68 59 73 CALM 29.85R SUSSEX CLEAR 64 57 78 CALM 29.88R ANDOVER N/A 64 63 96 CALM 29.89S TRENTON PTCLDY 74 58 57 SW3 29.86R MILLVILLE CLOUDY 73 66 78 CALM 29.87S ATLANTIC CITY CLOUDY 78 62 57 W5 29.87S WRIGHTSTOWN NOT AVBL TOMS RIVER N/A 68 63 83 CALM 29.87F BELMAR CLEAR 73 57 56 SW5 29.87S $$ PAZ047>061-062-071-020400- EASTERN PENNSYLVANIA CITY SKY/WX TMP DP RH WIND PRES REMARKS PHILADELPHIA PTCLDY 83 57 41 W7 29.87S ALLENTOWN PTCLDY 73 61 65 CALM 29.88R SCRANTON CLEAR 63 58 83 SE5 29.90S $$ CTZ002-004>006-009-010-012-RIZ004-006-007-MAZ004-011-015-020400- SOUTHERN NEW ENGLAND IN CT CITY SKY/WX TMP DP RH WIND PRES REMARKS BRADLEY INTL PTCLDY 70 59 68 NW3 29.83R HARTFORD CLEAR 72 65 78 CALM 29.83R DANBURY CLEAR 65 59 81 CALM 29.87R WTRBRY/OXFORD PTCLDY 66 57 72 N3 29.88R BRIDGEPORT PTCLDY 78 59 51 W5 29.83R MERIDEN CLEAR 69 65 86 CALM 29.84R NEW HAVEN CLEAR 73 64 73 S3 29.84R CHESTER FAIR 72 61 68 W5 29.85S GROTON CLEAR 69 65 86 CALM 29.82R WILLIMANTIC CLEAR 68 63 84 CALM 29.84R IN RI CITY SKY/WX TMP DP RH WIND PRES REMARKS PROVIDENCE PTCLDY 70 63 78 W6 29.82S BLOCK ISLAND N/A 72 70 94 SW8 29.83S WESTERLY CLEAR 69 64 84 CALM 29.83R IN MA CITY SKY/WX TMP DP RH WIND PRES REMARKS BOSTON PTCLDY 76 61 59 W8 29.80R WORCESTER CLEAR 65 57 75 W5 29.86R WESTFIELD CLEAR 64 62 93 CALM 29.84R PROVINCETOWN CLEAR 70 63 78 SW7 29.81R NANTUCKET PTCLDY 73 71 93 W9 29.83R $$ ANZ330-335-338-340-345-350-353-355-020400- COASTAL MARINE OBSERVATIONS STATION/POSITION TIME SKY/WX TEMP WIND PRES VSBY WAVE AIR SEA DIR/SP/G HT/PER (UTC) (F) (DEG/KT/KT) (MB) (MI) (FT/S) NY HARB ENTRANCE 0150 78 77 270/ 8/ 8 1010.1 3/ 8 4S FIRE IS NOT AVBL 20S FIRE ISLAND 0150 78 76 240/ 10/ 12 1010.1 5/ 9 GREAT SOUTH BAY 0200 80 81 330/ 6/ 10 N/A 23SW MTP 0250 76 74 240/ 14/ 14 1009.8 4/ 8 HUDSON CANYON NOT AVBL KINGS POINT 0200 78 70 360/ 4/ 6 1009.8 EXECUTION ROCKS 0200 78 280/ 4/ 6 N/A CENTRAL LI SOUND NOT AVBL EASTERN LI SOUND 0200 73 69 220/ 4/ 6 N/A ROBBINS REEF 0200 81 300/ 7/ 8 1009.6 $$ >>>>>>>>>>>>>>>>>>>>>>>>>>>> KEY <<<<<<<<<<<<<<<<<<<<<<<<<<< > < > SKY/WX - SKY CONDITION/PRESENT WEATHER < > TMP - TEMPERATURE IN FAHRENHEIT < > DP - DEWPOINT IN FAHRENHEIT < > RH - RELATIVE HUMIDITY IN PERCENT < > WIND - DIRECTION AND SPEED IN MPH < > PRES - MEAN SEA LEVEL PRESSURE IN INCHES OF HG < > WCI - WIND CHILL INDEX < > VSB - VISIBILITY IN MILES < > HX - HEAT INDEX < > TC - TEMPERATURE IN CELSIUS < > VRB - VARIABLE WIND DIRECTION < > < >>>>>>>>>>>>>>>>>>>>>>>>>>>> KEY <<<<<<<<<<<<<<<<<<<<<<<<<<<

USA.gov is the U.S. government's official web portal to all federal, state and local government web resources and services.